Location: Holbach
(51.5399°N, 10.6036°E)
Time: 03:43:43
(UTC+00:00)

Spot 2 Rocket - Pass Details

Date: 18 September 2020
Orbit: 758 x 772 km, 98.6° (Epoch: 22 October)

Event Time Altitude Azimuth Distance (km) Brightness Sun altitude
Exits shadow 19:48:07 49° 96° (E) 979 3.6 -21.9°
Maximum altitude 19:48:47 53° 68° (ENE) 935 3.7 -22.0°
Drops below altitude 10° 19:53:42 10° 353° (N) 2,301 6.5 -22.6°
Sets 19:56:02 0° 349° (NNW) 3,231 7.4 -22.9°
